| time (UTC) | temp F | wind direction | speed MPH | gust MPH | rain 1hr in | rain 24hr in | rain mn in | humidity % | barometer mb |
| 20260502223917 | 99 | 274 | 6.0 | 8.0 | 0.00 | 0.00 | 0.00 | 11 | 1006.1 |
| 20260502222917 | 98 | 239 | 6.0 | 8.0 | 0.00 | 0.00 | 0.00 | 11 | 1006.3 |
| 20260502222017 | 99 | 225 | 8.0 | 12.0 | 0.00 | 0.00 | 0.00 | 12 | 1006.3 |
| 20260502221017 | 98 | 226 | 4.0 | 6.0 | 0.00 | 0.00 | 0.00 | 12 | 1006.5 |
| 20260502220016 | 97 | 288 | 0.0 | 2.0 | 0.00 | 0.00 | 0.00 | 11 | 1006.7 |
| 20260502215017 | 98 | 33 | 3.0 | 4.0 | 0.00 | 0.00 | 0.00 | 12 | 1006.7 |
| 20260502214517 | 97 | 266 | 0.0 | 2.0 | 0.00 | 0.00 | 0.00 | 11 | 1006.7 |
| 20260502213516 | 97 | 28 | 4.0 | 6.0 | 0.00 | 0.00 | 0.00 | 10 | 1006.9 |
| 20260502212517 | 98 | 231 | 0.0 | 2.0 | 0.00 | 0.00 | 0.00 | 11 | 1007.2 |
| 20260502211516 | 96 | 202 | 2.0 | 8.0 | 0.00 | 0.00 | 0.00 | 11 | 1007.4 |
| 20260502205916 | 98 | 36 | 5.0 | 7.0 | 0.00 | 0.00 | 0.00 | 11 | 1007.6 |
| 20260502204917 | 97 | 21 | 2.0 | 3.0 | 0.00 | 0.00 | 0.00 | 11 | 1007.7 |
| 20260502204417 | 97 | 28 | 4.0 | 6.0 | 0.00 | 0.00 | 0.00 | 10 | 1007.8 |
| 20260502203416 | 98 | 17 | 5.0 | 7.0 | 0.00 | 0.00 | 0.00 | 10 | 1007.9 |
| 20260502202417 | 98 | 79 | 1.0 | 2.0 | 0.00 | 0.00 | 0.00 | 12 | 1008.1 |
| 20260502201417 | 95 | 23 | 2.0 | 3.0 | 0.00 | 0.00 | 0.00 | 11 | 1008.3 |
| 20260502200416 | 96 | 329 | 3.0 | 5.0 | 0.00 | 0.00 | 0.00 | 12 | 1008.4 |
| 20260502195417 | 96 | 352 | 1.0 | 2.0 | 0.00 | 0.00 | 0.00 | 11 | 1008.6 |
| 20260502194417 | 95 | 50 | 0.0 | 2.0 | 0.00 | 0.00 | 0.00 | 11 | 1008.7 |
| 20260502193416 | 96 | 148 | 3.0 | 6.0 | 0.00 | 0.00 | 0.00 | 13 | 1008.8 |
| 20260502192417 | 96 | 0.0 | 0.0 | 0.00 | 0.00 | 0.00 | 13 | 1008.9 | |
| 20260502191417 | 96 | 0.0 | 0.0 | 0.00 | 0.00 | 0.00 | 14 | 1009.1 | |
| 20260502190617 | 96 | 132 | 7.0 | 10.0 | 0.00 | 0.00 | 0.00 | 15 | 1009.3 |
| 20260502185616 | 94 | 96 | 5.0 | 8.0 | 0.00 | 0.00 | 0.00 | 13 | 1009.4 |
| 20260502184617 | 94 | 87 | 7.0 | 8.0 | 0.00 | 0.00 | 0.00 | 15 | 1009.6 |
| 20260502183617 | 93 | 98 | 9.0 | 12.0 | 0.00 | 0.00 | 0.00 | 15 | 1009.7 |
| 20260502182617 | 92 | 54 | 5.0 | 6.0 | 0.00 | 0.00 | 0.00 | 15 | 1009.8 |
| 20260502181617 | 92 | 46 | 7.0 | 8.0 | 0.00 | 0.00 | 0.00 | 18 | 1009.9 |
| 20260502180616 | 91 | 64 | 9.0 | 11.0 | 0.00 | 0.00 | 0.00 | 15 | 1010.1 |
| 20260502163917 | 87 | 13 | 3.0 | 5.0 | 0.00 | 0.00 | 0.00 | 29 | 1010.5 |
| 20260502162917 | 86 | 45 | 1.0 | 3.0 | 0.00 | 0.00 | 0.00 | 30 | 1010.5 |
| 20260502161917 | 85 | 28 | 4.0 | 6.0 | 0.00 | 0.00 | 0.00 | 28 | 1010.6 |
| 20260502160916 | 85 | 31 | 5.0 | 8.0 | 0.00 | 0.00 | 0.00 | 27 | 1010.6 |
| 20260502151917 | 80 | 56 | 0.0 | 0.0 | 0.00 | 0.00 | 0.00 | 40 | 1010.6 |
| 20260502150917 | 79 | 0.0 | 0.0 | 0.00 | 0.00 | 0.00 | 41 | 1010.6 | |
| 20260502150617 | 78 | 0.0 | 0.0 | 0.00 | 0.00 | 0.00 | 42 | 1010.5 | |
| 20260502130617 | 65 | 0.0 | 0.0 | 0.00 | 0.00 | 0.00 | 53 | 1009.5 | |
| 20260502123617 | 64 | 0.0 | 0.0 | 0.00 | 0.00 | 0.00 | 51 | 1009.0 | |
| 20260502122617 | 64 | 0.0 | 0.0 | 0.00 | 0.00 | 0.00 | 55 | 1009.0 | |
| 20260502121616 | 65 | 0.0 | 0.0 | 0.00 | 0.00 | 0.00 | 55 | 1008.9 | |
| 20260502120619 | 65 | 0.0 | 0.0 | 0.00 | 0.00 | 0.00 | 54 | 1008.9 | |
| 20260502115616 | 64 | 0.0 | 0.0 | 0.00 | 0.00 | 0.00 | 57 | 1008.8 | |
| 20260502114617 | 65 | 0.0 | 0.0 | 0.00 | 0.00 | 0.00 | 56 | 1008.8 | |
| 20260502113617 | 65 | 0.0 | 0.0 | 0.00 | 0.00 | 0.00 | 54 | 1008.8 | |
| 20260502112616 | 66 | 0.0 | 0.0 | 0.00 | 0.00 | 0.00 | 53 | 1008.7 | |
| 20260502111617 | 66 | 0.0 | 0.0 | 0.00 | 0.00 | 0.00 | 54 | 1008.7 | |
| 20260502110617 | 67 | 0.0 | 0.0 | 0.00 | 0.00 | 0.00 | 51 | 1008.7 | |
| 20260502105617 | 67 | 0.0 | 0.0 | 0.00 | 0.00 | 0.00 | 51 | 1008.7 | |
| 20260502104616 | 67 | 0.0 | 0.0 | 0.00 | 0.00 | 0.00 | 51 | 1008.7 | |
| 20260502103617 | 67 | 0.0 | 0.0 | 0.00 | 0.00 | 0.00 | 50 | 1008.7 | |
| 20260502102617 | 66 | 0.0 | 0.0 | 0.00 | 0.00 | 0.00 | 51 | 1008.6 | |
| 20260502100617 | 68 | 0.0 | 0.0 | 0.00 | 0.00 | 0.00 | 51 | 1008.6 | |
| 20260502090716 | 70 | 0.0 | 0.0 | 0.00 | 0.00 | 0.00 | 48 | 1008.9 | |
| 20260502071517 | 74 | 161 | 4.0 | 4.0 | 0.00 | 0.00 | 0.00 | 40 | 1009.1 |
| 20260502071033 | 74 | 162 | 4.0 | 6.0 | 0.00 | 0.00 | 0.00 | 40 | 1009.1 |
| 20260502070716 | 74 | 155 | 6.0 | 8.0 | 0.00 | 0.00 | 0.00 | 40 | 1009.1 |
| 20260502065717 | 74 | 143 | 5.0 | 8.0 | 0.00 | 0.00 | 0.00 | 40 | 1009.1 |
| 20260502064717 | 74 | 155 | 4.0 | 7.0 | 0.00 | 0.00 | 0.00 | 40 | 1009.1 |
| 20260502063717 | 75 | 159 | 4.0 | 7.0 | 0.00 | 0.00 | 0.00 | 39 | 1009.1 |
| 20260502062717 | 75 | 155 | 6.0 | 9.0 | 0.00 | 0.00 | 0.00 | 40 | 1009.0 |
| 20260502060717 | 76 | 169 | 7.0 | 9.0 | 0.00 | 0.00 | 0.00 | 42 | 1008.9 |
| 20260502055717 | 76 | 175 | 4.0 | 7.0 | 0.00 | 0.00 | 0.00 | 40 | 1008.8 |
| 20260502054717 | 77 | 157 | 6.0 | 8.0 | 0.00 | 0.00 | 0.00 | 36 | 1008.8 |
| 20260502053617 | 77 | 177 | 7.0 | 11.0 | 0.00 | 0.00 | 0.00 | 34 | 1008.7 |
| 20260502052616 | 77 | 169 | 7.0 | 11.0 | 0.00 | 0.00 | 0.00 | 38 | 1008.7 |
| 20260502051617 | 77 | 167 | 6.0 | 9.0 | 0.00 | 0.00 | 0.00 | 41 | 1008.7 |
| 20260502050617 | 77 | 178 | 8.0 | 11.0 | 0.00 | 0.00 | 0.00 | 42 | 1008.7 |
| 20260502045617 | 78 | 167 | 7.0 | 10.0 | 0.00 | 0.00 | 0.00 | 41 | 1008.7 |
| 20260502044617 | 78 | 169 | 7.0 | 11.0 | 0.00 | 0.00 | 0.00 | 41 | 1008.6 |
| 20260502043617 | 78 | 177 | 6.0 | 9.0 | 0.00 | 0.00 | 0.00 | 41 | 1008.4 |
| 20260502042616 | 79 | 180 | 8.0 | 10.0 | 0.00 | 0.00 | 0.00 | 39 | 1008.2 |
| 20260502041617 | 79 | 150 | 9.0 | 11.0 | 0.00 | 0.00 | 0.00 | 42 | 1008.0 |
| 20260502040617 | 80 | 204 | 6.0 | 9.0 | 0.00 | 0.00 | 0.00 | 40 | 1007.7 |
| 20260502035617 | 81 | 208 | 4.0 | 6.0 | 0.00 | 0.00 | 0.00 | 38 | 1007.4 |
| 20260502034616 | 82 | 210 | 4.0 | 6.0 | 0.00 | 0.00 | 0.00 | 37 | 1007.2 |
| 20260502033617 | 82 | 203 | 4.0 | 6.0 | 0.00 | 0.00 | 0.00 | 36 | 1007.0 |
| 20260502032616 | 83 | 215 | 5.0 | 7.0 | 0.00 | 0.00 | 0.00 | 35 | 1006.8 |
| 20260502031616 | 84 | 220 | 6.0 | 7.0 | 0.00 | 0.00 | 0.00 | 32 | 1006.6 |
| 20260502030616 | 85 | 225 | 6.0 | 7.0 | 0.00 | 0.00 | 0.00 | 30 | 1006.4 |
| 20260502024616 | 87 | 216 | 4.0 | 6.0 | 0.00 | 0.00 | 0.00 | 18 | 1006.0 |
| 20260502023617 | 87 | 214 | 3.0 | 4.0 | 0.00 | 0.00 | 0.00 | 18 | 1005.9 |
| 20260502022617 | 88 | 216 | 3.0 | 3.0 | 0.00 | 0.00 | 0.00 | 18 | 1005.8 |
| 20260502021717 | 89 | 0.0 | 0.0 | 0.00 | 0.00 | 0.00 | 18 | 1005.7 | |
| 20260502020716 | 90 | 218 | 2.0 | 2.0 | 0.00 | 0.00 | 0.00 | 17 | 1005.7 |
| 20260502015717 | 92 | 224 | 4.0 | 6.0 | 0.00 | 0.00 | 0.00 | 16 | 1005.6 |
| 20260502014716 | 93 | 214 | 2.0 | 3.0 | 0.00 | 0.00 | 0.00 | 15 | 1005.6 |
| 20260502013717 | 93 | 225 | 6.0 | 8.0 | 0.00 | 0.00 | 0.00 | 15 | 1005.5 |
| 20260502012717 | 94 | 227 | 8.0 | 11.0 | 0.00 | 0.00 | 0.00 | 14 | 1005.5 |
| 20260502011723 | 94 | 233 | 5.0 | 6.0 | 0.00 | 0.00 | 0.00 | 14 | 1005.5 |
| 20260502010716 | 95 | 220 | 7.0 | 11.0 | 0.00 | 0.00 | 0.00 | 14 | 1005.4 |
| 20260502005717 | 95 | 239 | 7.0 | 10.0 | 0.00 | 0.00 | 0.00 | 14 | 1005.4 |
| 20260502004717 | 96 | 243 | 6.0 | 10.0 | 0.00 | 0.00 | 0.00 | 14 | 1005.4 |
| 20260502003716 | 96 | 225 | 7.0 | 8.0 | 0.00 | 0.00 | 0.00 | 14 | 1005.4 |
| 20260502002717 | 96 | 213 | 7.0 | 9.0 | 0.00 | 0.00 | 0.00 | 15 | 1005.5 |
| 20260502001717 | 96 | 211 | 6.0 | 7.0 | 0.00 | 0.00 | 0.00 | 15 | 1005.6 |
| 20260502000717 | 96 | 228 | 4.0 | 5.0 | 0.00 | 0.00 | 0.00 | 15 | 1005.7 |
| 20260501235716 | 96 | 223 | 7.0 | 10.0 | 0.00 | 0.00 | 0.00 | 14 | 1005.7 |
| 20260501234716 | 96 | 232 | 1.0 | 4.0 | 0.00 | 0.00 | 0.00 | 15 | 1005.7 |
| 20260501233716 | 95 | 0.0 | 0.0 | 0.00 | 0.00 | 0.00 | 15 | 1005.9 | |
| 20260501232717 | 96 | 223 | 5.0 | 8.0 | 0.00 | 0.00 | 0.00 | 15 | 1005.9 |
| 20260501231716 | 94 | 0.0 | 0.0 | 0.00 | 0.00 | 0.00 | 16 | 1005.9 | |
| 20260501230716 | 97 | 230 | 5.0 | 6.0 | 0.00 | 0.00 | 0.00 | 15 | 1006.0 |
| 20260501230416 | 97 | 226 | 6.0 | 9.0 | 0.00 | 0.00 | 0.00 | 15 | 1006.0 |
| 20260501225417 | 97 | 217 | 3.0 | 5.0 | 0.00 | 0.00 | 0.00 | 15 | 1006.1 |
| 20260501224416 | 95 | 196 | 3.0 | 4.0 | 0.00 | 0.00 | 0.00 | 17 | 1006.2 |